Regional Weather Roundup
Issued by NWS

Home | Current Version | Previous Version | Text Only | Print | Product List | Glossary On
Versions: 1 2 3 4 5 6 7 8 9 10 11 12 13 14 15 16 17 18 19 20 21 22 23 24 25 26 27 28 29 30 31 32 33 34 35 36 37 38 39 40 41 42 43 44 45 46 47 48 49 50
000
ASUS43 KIND 250709
RWRIN

WEATHER ROUNDUP FOR INDIANA
NATIONAL WEATHER SERVICE INDIANAPOLIS IN
300 AM EDT FRI APR 25 2014

NOTE: "FAIR" INDICATES FEW OR NO CLOUDS BELOW 12,000 FEET WITH NO
SIGNIFICANT WEATHER AND/OR OBSTRUCTIONS TO VISIBILITY.

* - STATION DOES NOT REPORT WEATHER SUCH AS PRECIPITATION OR FOG.

+ - STATION NOT QUALITY CONTROLLED BY THE NATIONAL WEATHER SERVICE.
    USE DATA WITH CAUTION...ESPECIALLY DEWPOINT AND RELATIVE
    HUMIDITY OBSERVATIONS.

INZ001>003-010>013-019-020-250800-
NORTHWEST INDIANA

CITY           SKY/WX    TMP DP  RH WIND       PRES   REMARKS
GARY /AIRPORT/ RAIN      54  38  55 S6        29.63F
LA PORTE +     CLOUDY    50  33  51 E7        29.66F
MICHIGAN CITY+ CLOUDY    52  30  43 SE8       29.65S
MONTICELLO +   CLOUDY    56  35  45 SE5       29.62F
RENSSELAER +   RAIN      54  37  54 E6        29.63F
VALPARAISO     CLOUDY    51  33  50 E7        29.64F

$$

LMZ046-743>745-250800-
SOUTHERN LAKE MICHIGAN

STATION/POSITION TIME  TEMP WIND        PRES
                       AIR  DIR/SP/G
                 (UTC) (F)  (DEG/KT/KT) (MB)
MICHIGAN CITY    0700   53  110/ 11/ 16   N/A

$$

INZ004-005-014>016-021>024-250800-
NORTH CENTRAL INDIANA

CITY           SKY/WX    TMP DP  RH WIND       PRES   REMARKS
GOSHEN         LGT RAIN  46  36  68 E10       29.69F
LOGANSPORT +   LGT RAIN  50  37  62 E7        29.64F
PERU/GRISSOM   CLOUDY    53  32  44 E8        29.64F
ROCHESTER +    CLOUDY    54  32  43 SE12      29.65F
SOUTH BEND     CLOUDY    48  34  58 SE16      29.67F
WARSAW +       LGT RAIN  45  37  76 E9        29.67F

$$

INZ006>009-017-018-025>027-250800-
NORTHEAST INDIANA

CITY           SKY/WX    TMP DP  RH WIND       PRES   REMARKS
ANGOLA *+      PTCLDY    46  28  49 E6        29.72F
AUBURN +       CLOUDY    45  30  57 E6        29.71F
FORT WAYNE     CLOUDY    47  32  56 E9        29.68F

$$

INZ028-029-035-036-043>045-051>053-250800-
WEST CENTRAL INDIANA

CITY           SKY/WX    TMP DP  RH WIND       PRES   REMARKS
GREENCASTLE +  LGT RAIN  54  50  87 S3        29.64F
LAFAYETTE      LGT RAIN  56  46  69 S5        29.62F
TERRE HAUTE    LGT RAIN  56  53  90 SE5       29.61F

$$

INZ030>032-037>040-046>048-054>057-064-065-250800-
CENTRAL INDIANA

CITY           SKY/WX    TMP DP  RH WIND       PRES   REMARKS
CP ATTERBURY + RAIN      55  45  67 S6        29.66F
GREENWOOD *+   CLOUDY    57  45  62 SE6       29.65F
INDIANAPOLIS   LGT RAIN  55  43  63 S8        29.64F
-EAGLE CREEK   LGT RAIN  57  39  51 S6        29.64F
KOKOMO *+        N/A    N/A N/A N/A MISG        N/A
MARION +       CLOUDY    55  25  31 S9G18     29.66F
MT COMFORT *+  CLOUDY    57  34  41 S6        29.66F
SHELBYVILLE    CLOUDY    60  39  45 S8        29.65F
ZIONSVILLE +   CLOUDY    58  34  40 S6        29.65F

$$

INZ033-034-041-042-049-050-058-059-250800-
EAST CENTRAL INDIANA

CITY           SKY/WX    TMP DP  RH WIND       PRES   REMARKS
MUNCIE         CLOUDY    59  25  27 S14G22    29.66F

$$

INZ060-061-067>069-081>083-085>088-250800-
SOUTHWEST INDIANA

CITY           SKY/WX    TMP DP  RH WIND       PRES   REMARKS
EVANSVILLE     LGT RAIN  61  57  87 S10       29.63F
HUNTINGBURG *+ CLOUDY    57  52  82 SE7       29.64F
WASHINGTON +   CLOUDY    57  55  92 SE7       29.60F

$$

INZ062-063-066-070>080-084-089>092-250800-
SOUTH CENTRAL AND SOUTHEAST INDIANA

CITY           SKY/WX    TMP DP  RH WIND       PRES   REMARKS
BEDFORD +      RAIN      55  52  88 SE3       29.65
BLOOMINGTON    LGT RAIN  55  51  86 SE5       29.64F
SEYMOUR +      DRIZZLE   52  37  58 SE6       29.65

$$




USA.gov is the U.S. government's official web portal to all federal, state and local government web resources and services.